Regional Weather Roundup
Issued by NWS Glasgow, MT

Home | Current Version | Previous Version | Text Only | Print | Product List | Glossary On
Versions: 1 2 3 4 5 6 7 8 9 10 11 12 13 14 15 16 17 18 19 20 21 22 23 24 25 26 27 28 29 30 31 32 33 34 35 36 37 38 39 40 41 42 43 44 45 46 47 48 49 50
000
ASUS45 KGGW 020015
RWRGGW
HOURLY REGIONAL WEATHER ROUNDUP FOR NORTHEAST MONTANA
NATIONAL WEATHER SERVICE GLASGOW MONTANA
600 PM MDT WED JUL 01 2015

NOTE: "FAIR" INDICATES FEW OR NO CLOUDS BELOW 12,000 FEET WITH NO
SIGNIFICANT WEATHER AND/OR OBSTRUCTIONS TO VISISBILITY.

NORTHEAST MONTANA


CITY           SKY/WX    TMP DP  RH WIND       PRES   REMARKS
GLASGOW        PTSUNNY   82  51  34 W15       29.96F
6HR MIN TEMP:  75; 6HR MAX TEMP:  84;

PLENTYWOOD       N/A     76  55  48 N3G12       N/A
WOLF POINT     CLOUDY    75  65  70 N10       29.97F HAZE
JORDAN           N/A     82  54  37 N12       29.99S
WINNETT          N/A     72  62  71 N12G26      N/A
SIDNEY         CLOUDY    77  61  57 N7        29.96F
GLENDIVE       CLOUDY    75  64  69 NE10      29.97S
MALTA            N/A     76  50  40 N9G20       N/A
SCOBEY           N/A     64  56  75 S5        29.99R HAZE

FORT PECK REPORTS


CITY           SKY/WX    TMP DP  RH WIND       PRES   REMARKS
FORT PECK        N/A     78  65  63 S7G16       N/A
THE PINES        N/A     75  62  64 S5          N/A

SOUTHEAST MONTANA


CITY           SKY/WX    TMP DP  RH WIND       PRES   REMARKS
BILLINGS       MOSUNNY   88  51  28 NE29G38   29.98S
MILES CITY     SUNNY     83  59  44 NE9       29.93F
BAKER          MOSUNNY   77  61  57 NE9       30.00S
LIVINGSTON     SUNNY     91  41  17 NW18      30.04F

CENTRAL MONTANA


CITY           SKY/WX    TMP DP  RH WIND       PRES   REMARKS
HAVRE          MOSUNNY   83  52  34 N15G23    30.02S
LEWISTOWN      MOSUNNY   77  52  41 NE12G17   30.10R
GREAT FALLS    SUNNY     80  51  36 NE15G24   30.08R
CUT BANK       MOSUNNY   78  51  38 N18G24    30.12S
HELENA         MOSUNNY   90  48  23 N20G28    30.00S
BUTTE          SUNNY     86  36  16 NW15      30.13F
BOZEMAN        SUNNY     90  42  18 N7        30.04F

WESTERN MONTANA


CITY           SKY/WX    TMP DP  RH WIND       PRES   REMARKS
MISSOULA       MOSUNNY   93  38  14 CALM      29.98S
KALISPELL      NOT AVBL

NORTH DAKOTA


CITY           SKY/WX    TMP DP  RH WIND       PRES   REMARKS
WILLISTON      CLOUDY    76  57  51 NW5       29.95F HAZE
DICKINSON      MOSUNNY   73  61  65 W5        29.97S
MINOT          MOSUNNY   73  62  68 N7        29.93F
BISMARCK       PTSUNNY   78  62  57 CALM      29.93F

SOUTHERN SASKATCHEWAN


CITY           SKY/WX    TMP DP  RH WIND       PRES   REMARKS
REGINA         CLOUDY    73  63  68 NW5       29.95S
ESTEVAN        CLOUDY    72  64  78 W5        29.96S SMOKE
SWIFT CURRENT  MOSUNNY   70  57  64 SW9       30.00R



USA.gov is the U.S. government's official web portal to all federal, state and local government web resources and services.